Racine, WI

6:40 AM CST on December 08, 2016 (GMT -0600)
Batten

Weather History for KRAC - May, 2013

Change the Weather History Date:

Tuesday, May 21, 2013

  Actual Average Record
Temperature  
Mean Temperature 73 °F -  
Max Temperature 84 °F 65 °F 90 °F (1970)
Min Temperature 64 °F 47 °F 30 °F (2002)
Cooling Degree Days 8    
Growing Degree Days 23 (Base 50)    
Moisture  
Dew Point 60 °F    
Average Humidity 68    
Maximum Humidity 88    
Minimum Humidity 38    
Precipitation  
Precipitation 0.10 in - - ()
Sea Level Pressure  
Sea Level Pressure 29.69 in    
Wind  
Wind Speed 10 mph (SSW)    
Max Wind Speed 16 mph    
Max Gust Speed 26 mph    
Visibility 9 miles    
Events Rain , Thunderstorm    
Averages and records for this station are not official NWS values.
T = Trace of Precipitation, MM = Missing Value Source: NWS Daily Summary

Daily Weather History Graph

Daily Weather History Graph

Search for Another Location

Airport or City:

Trip Planner

Search our weather history database for the weather conditions in past years. The results will help you decide how hot, cold, wet, or windy it might be!

Date:

Astronomy

May. 21, 2013 Rise Set
Actual Time 5:22 AM CDT 8:13 PM CDT
Civil Twilight 4:49 AM CDT 8:46 PM CDT
Nautical Twilight 4:07 AM CDT 9:28 PM CDT
Astronomical Twilight 3:19 AM CDT 10:17 PM CDT
Moon 4:22 PM CDT (5/21) 2:56 AM CDT (5/21)
Length of Visible Light 15h 57m
Length of Day
14h 50m
Waxing Gibbous, 84% of the Moon is Illuminated
May 21
Waxing Gibbous
May 24
Full
May 31
Last Quarter
Jun 8
New
Jun 16
First Quarter

Hourly Weather History & Observations

Time (CDT) Temp. Heat Index Dew Point Humidity Pressure Visibility Wind Dir Wind Speed Gust Speed Precip Events Conditions
12:01 AM 71.6 °F - 62.6 °F 73% 29.75 in 6.0 mi SSW 11.5 mph - 0.02 in Rain , Thunderstorm Light Rain
12:24 AM 69.8 °F - 62.6 °F 78% 29.74 in 5.0 mi SW 11.5 mph 20.7 mph 0.08 in Rain , Thunderstorm Rain
12:45 AM 68.0 °F - 62.6 °F 83% 29.71 in 10.0 mi SSW 3.5 mph - 0.10 in Rain Light Rain
12:53 AM 68.0 °F - 62.1 °F 81% 29.73 in 10.0 mi SW 8.1 mph - 0.10 in Rain Light Rain
1:53 AM 68.0 °F - 63.0 °F 84% 29.69 in 10.0 mi South 8.1 mph - 0.00 in   Partly Cloudy
2:14 AM 66.2 °F - 62.6 °F 88% 29.70 in 4.0 mi South 12.7 mph - N/A   Scattered Clouds
2:23 AM 66.2 °F - 62.6 °F 88% 29.70 in 3.0 mi South 15.0 mph 20.7 mph N/A   Mostly Cloudy
2:48 AM 66.2 °F - 62.6 °F 88% 29.69 in 10.0 mi South 9.2 mph - N/A   Scattered Clouds
2:53 AM 66.9 °F - 62.1 °F 84% 29.67 in 10.0 mi South 9.2 mph - N/A   Partly Cloudy
3:53 AM 66.0 °F - 61.0 °F 84% 29.66 in 10.0 mi South 8.1 mph - N/A   Clear
4:53 AM 66.9 °F - 61.0 °F 81% 29.67 in 10.0 mi SSE 6.9 mph - N/A   Clear
5:53 AM 64.0 °F - 59.0 °F 84% 29.68 in 10.0 mi South 5.8 mph - N/A   Clear
6:53 AM 64.0 °F - 57.9 °F 80% 29.69 in 10.0 mi SSW 3.5 mph - N/A   Clear
7:53 AM 70.0 °F - 61.0 °F 73% 29.69 in 10.0 mi SW 10.4 mph 16.1 mph N/A   Mostly Cloudy
8:14 AM 71.6 °F - 62.6 °F 73% 29.70 in 10.0 mi SW 10.4 mph - N/A   Scattered Clouds
8:41 AM 71.6 °F - 62.6 °F 73% 29.71 in 10.0 mi SSW 10.4 mph - N/A   Mostly Cloudy
8:53 AM 72.0 °F - 62.1 °F 71% 29.70 in 10.0 mi SW 11.5 mph 19.6 mph N/A   Scattered Clouds
9:21 AM 71.6 °F - 62.6 °F 73% 29.71 in 10.0 mi SW 11.5 mph 17.3 mph N/A   Mostly Cloudy
9:53 AM 73.0 °F - 62.1 °F 68% 29.70 in 10.0 mi SSW 12.7 mph 18.4 mph N/A   Mostly Cloudy
10:53 AM 77.0 °F - 64.0 °F 64% 29.69 in 10.0 mi South 10.4 mph - N/A   Overcast
11:53 AM 78.1 °F - 63.0 °F 60% 29.69 in 10.0 mi SSW 13.8 mph 20.7 mph N/A   Mostly Cloudy
12:09 PM 78.8 °F - 62.6 °F 57% 29.70 in 10.0 mi SSW 13.8 mph 24.2 mph N/A   Scattered Clouds
12:53 PM 77.0 °F - 61.0 °F 58% 29.67 in 10.0 mi SSE 10.4 mph - N/A   Clear
1:53 PM 80.1 °F 81.1 °F 61.0 °F 52% 29.67 in 10.0 mi SSE 15.0 mph 25.3 mph N/A   Scattered Clouds
2:53 PM 81.0 °F 81.6 °F 60.1 °F 49% 29.66 in 10.0 mi South 10.4 mph 20.7 mph N/A   Mostly Cloudy
3:53 PM 82.0 °F 82.1 °F 59.0 °F 45% 29.65 in 10.0 mi SSW 15.0 mph 23.0 mph N/A   Mostly Cloudy
4:53 PM 82.0 °F 82.0 °F 57.9 °F 44% 29.65 in 10.0 mi SW 15.0 mph 26.5 mph N/A   Scattered Clouds
5:53 PM 82.9 °F 82.0 °F 55.0 °F 38% 29.65 in 10.0 mi WSW 16.1 mph 25.3 mph N/A   Clear
6:53 PM 81.0 °F 80.5 °F 54.0 °F 39% 29.65 in 10.0 mi WSW 13.8 mph 19.6 mph N/A   Clear
7:53 PM 78.1 °F - 55.0 °F 45% 29.68 in 10.0 mi SW 8.1 mph - N/A   Clear
8:53 PM 75.0 °F - 55.0 °F 50% 29.69 in 10.0 mi SW 5.8 mph - N/A   Clear
9:53 PM 73.0 °F - 55.0 °F 53% 29.70 in 10.0 mi WSW 3.5 mph - N/A   Clear
10:53 PM 68.0 °F - 57.0 °F 68% 29.70 in 10.0 mi Calm Calm - N/A   Clear
11:53 PM 64.9 °F - 57.0 °F 75% 29.69 in 10.0 mi Calm Calm - N/A   Mostly Cloudy